Regional Weather Roundup
Issued by NWS

Home | Current Version | Previous Version | Graphics & Text | Print | Product List | Glossary Off
Versions: 1 2 3 4 5 6 7 8 9 10 11 12 13 14 15 16 17 18 19 20 21 22 23 24 25 26 27 28 29 30 31 32 33 34 35 36 37 38 39 40 41 42 43 44 45 46 47 48 49 50

000
ASUS43 KTOP 301959
RWRKS

WEATHER ROUNDUP FOR KANSAS
NATIONAL WEATHER SERVICE GOODLAND KS
300 PM CDT THU JUL 30 2015

NOTE:  "FAIR" INDICATES FEW OR NO CLOUDS BELOW 12,000 FEET WITH NO
SIGNIFICANT WEATHER AND/OR OBSTRUCTIONS TO VISIBILITY.

KSZ001>006-013>018-027>032-041>047-302100-
NORTHWEST KANSAS

CITY           SKY/WX    TMP DP  RH WIND       PRES   REMARKS
GOODLAND       SUNNY     86  60  41 S12       30.26F
HAYS           MOSUNNY   82  64  54 SE7       30.21F
HILL CITY      MOSUNNY   88  66  48 S8        30.22F
RUSSELL        MOSUNNY   83  67  58 SE3       30.20F
$$

KSZ061>065-074>080-084>089-302100-
SOUTHWEST KANSAS

CITY           SKY/WX    TMP DP  RH WIND       PRES   REMARKS
DODGE CITY     MOSUNNY   83  66  56 VRB3      30.23F
ELKHART          N/A     79  65  62 E12         N/A
GARDEN CITY    MOSUNNY   83  66  56 S6        30.24F
GREAT BEND     MOSUNNY   82  64  54 SE6       30.20F
LIBERAL        CLOUDY    82  70  65 E10       30.24F
$$

KSZ066>073-081>083-090>101-302100-
SOUTHEAST KANSAS

CITY           SKY/WX    TMP DP  RH WIND       PRES   REMARKS
CHANUTE        CLOUDY    82  71  69 NW12      30.19F
COFFEYVILLE    CLOUDY    85  68  56 N10       30.16F
HUTCHINSON     MOSUNNY   83  68  60 SE5G16    30.21F
MEDICINE LODGE   N/A     80  69  69 VRB6      30.20F
NEWTON         MOSUNNY   77  66  69 E5        30.24F
PARSONS        CLOUDY    79  73  82 NW6       30.19F
WICHITA INTL   PTSUNNY   82  69  64 NE7       30.19F
WICHITA JABRA  MOSUNNY   80  70  71 N7        30.20F
WINFIELD       PTSUNNY   80  70  71 SE9       30.20F
$$

KSZ007>012-019>026-033>040-048>060-102>105-302100-
NORTHEAST KANSAS

CITY           SKY/WX    TMP DP  RH WIND       PRES   REMARKS
CONCORDIA      MOSUNNY   85  66  53 S9        30.19F
EMPORIA        PTSUNNY   76  66  71 SE5       30.21F
LAWRENCE       PTSUNNY   86  59  39 S6        30.19F
MANHATTAN      PTSUNNY   85  65  51 SE5       30.19F
OLATHE IND     CLOUDY    83  59  44 SE7       30.21F
OLATHE EXE     CLOUDY    82  59  45 SW5       30.20F
SALINA         MOSUNNY   86  67  52 S7        30.19F
TOPEKA BILLARD FAIR      85  57  38 S7        30.20F
TOPEKA FORBES  MOSUNNY   86  58  38 SW3       30.20F
$$



USA.gov is the U.S. government's official web portal to all federal, state and local government web resources and services.